Cozumel, Mexico

12:09 PM EST on September 23, 2017 (GMT -0500)
Cozumel

Weather History for MMCZ - January, 2013

Change the Weather History Date:

Saturday, January 5, 2013

  Actual Average Record
Temperature  
Mean Temperature 74 °F -  
Max Temperature 80 °F 80 °F 86 °F (1997)
Min Temperature 68 °F 69 °F 55 °F (2011)
Cooling Degree Days 9    
Growing Degree Days 24 (Base 50)    
Moisture  
Dew Point 65 °F    
Average Humidity 77    
Maximum Humidity 88    
Minimum Humidity 61    
Precipitation  
Precipitation 0.00 in - - ()
Sea Level Pressure  
Sea Level Pressure 30.09 in    
Wind  
Wind Speed 5 mph ()    
Max Wind Speed 14 mph    
Max Gust Speed -    
Visibility 7.4 miles    
Events      
Averages and records for this station are not official NWS values.
T = Trace of Precipitation, MM = Missing Value Source: Averaged Metar Reports

Daily Weather History Graph

Daily Weather History Graph

Search for Another Location

Airport or City:

Trip Planner

Search our weather history database for the weather conditions in past years. The results will help you decide how hot, cold, wet, or windy it might be!

Date:

Astronomy

Jan. 05, 2013 Rise Set
Actual Time 6:25 AM CST 5:21 PM CST
Civil Twilight 6:01 AM CST 5:45 PM CST
Nautical Twilight 5:33 AM CST 6:12 PM CST
Astronomical Twilight 5:06 AM CST 6:40 PM CST
Moon No Moon Rise 11:48 AM CST (1/5)
Length of Visible Light 11h 44m
Length of Day
10h 56m
Last Quarter, 44% of the Moon is Illuminated
Jan 5
Last Quarter
Jan 11
New
Jan 18
First Quarter
Jan 26
Full
Feb 3
Last Quarter

Hourly Weather History & Observations

Time (CST) Temp. Heat Index Dew Point Humidity Pressure Visibility Wind Dir Wind Speed Gust Speed Precip Events Conditions
12:43 AM 69.8 °F - 64.4 °F 83% 30.10 in 7.0 mi East 5.8 mph - N/A   Partly Cloudy
1:42 AM 69.8 °F - 64.4 °F 83% 30.08 in 7.0 mi East 4.6 mph - N/A   Partly Cloudy
2:43 AM 69.8 °F - 64.4 °F 83% 30.10 in 7.0 mi East 4.6 mph - N/A   Scattered Clouds
3:41 AM 69.8 °F - 64.4 °F 83% 30.08 in 7.0 mi East 4.6 mph - N/A   Partly Cloudy
5:15 AM 68.0 °F - 64.4 °F 88% 30.07 in 7.0 mi East 4.6 mph - N/A   Partly Cloudy
5:46 AM 68.0 °F - 64.4 °F 88% 30.05 in 7.0 mi East 3.5 mph - N/A   Scattered Clouds
6:40 AM 69.8 °F - 64.4 °F 83% 30.09 in 7.0 mi East 3.5 mph - N/A   Mostly Cloudy
7:43 AM 71.6 °F - 64.4 °F 78% 30.11 in 7.0 mi East 4.6 mph - N/A   Mostly Cloudy
8:48 AM 77.0 °F - 66.2 °F 69% 30.15 in 7.0 mi East 12.7 mph - N/A   Scattered Clouds
9:40 AM 77.0 °F - 68.0 °F 74% 30.12 in 8.0 mi East 13.8 mph - N/A   Scattered Clouds
10:52 AM 77.0 °F - 66.2 °F 69% 30.11 in 8.0 mi East 12.7 mph - N/A   Scattered Clouds
11:41 AM 78.8 °F - 66.2 °F 65% 30.06 in 8.0 mi East 9.2 mph - N/A   Scattered Clouds
12:49 PM 80.6 °F 82.7 °F 66.2 °F 61% 30.08 in 8.0 mi East 9.2 mph - N/A   Scattered Clouds
1:42 PM 80.6 °F 82.7 °F 66.2 °F 61% 30.07 in 8.0 mi East 9.2 mph - N/A   Scattered Clouds
2:48 PM 80.6 °F 82.7 °F 66.2 °F 61% 30.09 in 8.0 mi East 8.1 mph - N/A   Scattered Clouds
3:51 PM 77.0 °F - 66.2 °F 69% 30.06 in 8.0 mi East 5.8 mph - N/A   Scattered Clouds
4:49 PM 75.2 °F - 66.2 °F 73% 30.07 in 8.0 mi East 5.8 mph - N/A   Scattered Clouds
5:48 PM 73.4 °F - 66.2 °F 78% 30.05 in 8.0 mi Calm Calm - N/A   Scattered Clouds
6:51 PM 69.8 °F - 64.4 °F 83% 30.10 in 8.0 mi Calm Calm - N/A   Scattered Clouds
7:58 PM 69.8 °F - 64.4 °F 83% 30.11 in 7.0 mi Calm Calm - N/A   Scattered Clouds
8:40 PM 68.0 °F - 64.4 °F 88% 30.14 in 7.0 mi Calm Calm - N/A   Partly Cloudy
9:44 PM 69.8 °F - 64.4 °F 83% 30.11 in 7.0 mi East 5.8 mph - N/A   Partly Cloudy
10:50 PM 69.8 °F - 64.4 °F 83% 30.08 in 7.0 mi ESE 6.9 mph - N/A   Partly Cloudy
11:44 PM 68.0 °F - 64.4 °F 88% 30.03 in 7.0 mi East 3.5 mph - N/A   Clear